Volver al catálogo

ARIANE 3 DEB

ActivoGTO
NORAD 33537·DEBRIS·🇫🇷 France

Lanzado Sep 8, 1988 desde Guiana Space Centre

Loading…

TLE

EnvejeciendoSource: Space-Track

Época: Sep 14, 2026, 10:05 UTC

1 33537U 88081M   26257.42042447 -.00000066  00000-0  00000-0 0  9998
2 33537   6.7895  69.2022 7008551 184.4514 218.0093  2.16882153106558

Sigue ARIANE 3 DEB en tiempo real con AllMySat

Download on the App Store